CAPE
2843 2679 2704 2935 3183 3467 3330 3563 3888 4179 4166 4169 4112 4212 4260 4093 4125 4261 4096 3918 3873 3613 3042 2812 2539 2380 2403 669 666 512 0 0 0 0 73 44 54 1 22 0 3 0 0
2685 2921 2704 3203 3117 3288 3450 3427 3504 3767 4202 4476 4661 4683 4671 4395 4506 3891 3885 4149 3722 3146 3270 2846 3044 2958 2620 828 452 1 0 0 0 34 11 17 4 52 37 51 58 0 0
2566 2546 3185 3296 3387 3536 3693 3635 3975 4106 4238 4161 4646 4661 4751 4721 4323 4162 4420 3062 3261 3429 3232 3058 2557 2087 2154 1894 75 2 0 1 0 3 9 15 31 11 42 88 67 49 0
2514 2566 3112 3117 3474 3615 4067 4152 4172 4448 4516 4492 4697 4899 4806 4600 3945 3292 2633 2947 3472 3174 2720 2292 1642 1239 1198 216 4 2 4 1 0 28 6 10 25 27 35 51 90 89 0
2726 2832 2729 3376 3468 3694 3813 4343 4278 4342 4385 4663 4795 4791 4666 1969 733 1058 1714 2739 2999 2516 2536 1866 857 294 524 77 2 0 0 0 2 10 10 37 38 48 42 118 91 95 75
4305 3405 3681 3683 4004 3929 3909 4118 4400 4494 4678 4804 4635 4645 4137 104 0 0 0 2390 2461 2512 2038 1713 577 245 0 0 0 0 0 0 9 2 10 20 40 49 77 31 70 91 88
5032 4473 4130 4404 4109 4227 4197 4492 4489 4678 4881 4935 4831 4543 2905 23 0 0 0 1943 2141 1880 1459 737 455 6 1 0 0 0 0 0 0 48 2 5 55 121 99 66 66 99 83
4732 4981 4603 4671 4476 4608 4569 4508 4870 4839 5015 4962 4336 3288 848 0 0 0 0 1199 1815 1303 597 779 571 290 13 0 0 0 0 0 0 0 76 54 80 147 97 99 89 73 80
4813 4609 5055 4712 4832 4713 4779 4840 4883 4924 5085 4357 3448 2799 927 0 1 0 0 1909 1517 1100 573 0 281 160 0 0 2 0 0 0 0 0 5 9 21 40 59 73 73 69 65
4253 4879 4826 5096 4934 4838 4844 4847 4923 4970 4270 3101 2409 1470 163 0 0 0 0 885 1648 795 602 0 0 0 0 0 3 0 0 0 0 0 0 0 5 0 0 124 38 69 54
3668 3263 4697 4847 4934 4778 4807 4931 4849 4071 3111 2078 1256 800 610 0 0 0 0 405 412 699 423 200 0 0 0 0 0 20 0 0 0 0 4 3 0 0 0 52 114 79 67
3853 3470 2900 4269 4507 4668 4627 4797 3927 2798 2143 1286 970 790 284 0 0 0 0 0 0 576 327 0 0 0 0 0 0 0 0 0 0 0 0 0 0 0 0 36 46 76 96
3136 4330 3291 3114 2957 3214 3289 3459 2892 1571 1037 847 716 610 203 0 0 0 0 0 0 63 1 0 0 0 0 0 0 0 0 0 0 15 20 6 7 3 0 47 96 38 43
2580 3422 2660 1394 994 508 612 1205 989 1010 895 868 663 547 420 2 0 0 0 0 0 0 0 0 0 0 0 0 0 0 0 3 20 51 64 15 24 33 32 32 63 72 48
2189 2513 2201 720 898 50 0 0 7 0 98 903 680 207 41 0 0 0 0 3 0 0 7 0 0 0 3 21 8 16 62 10 17 42 90 68 29 29 12 17 20 49 22
1638 1834 1834 1344 594 12 1 0 0 1 0 0 0 0 0 0 0 1 2 0 0 0 9 6 3 4 1 1 0 0 27 11 48 8 20 47 43 54 16 23 30 20 34
1262 906 1418 383 6 0 2 0 1 1 0 0 0 0 0 0 0 0 0 0 0 0 0 4 2 1 2 2 2 1 1 1 0 21 0 0 4 0 19 40 25 12 13
927 722 1031 986 36 0 1 1 0 0 0 0 0 0 0 0 0 0 0 0 0 0 1 8 1 3 1 0 0 2 2 1 1 1 1 0 0 3 32 28 49 36 23
1240 941 395 871 79 0 0 0 0 0 0 0 0 0 0 0 0 0 0 0 0 0 0 1 0 1 7 5 0 2 3 2 2 2 2 2 1 1 0 18 22 3 1
1029 381 216 8 2 0 0 0 0 0 0 0 0 0 0 0 0 0 0 0 0 0 1 0 0 0 1 2 4 6 8 5 1 0 0 2 1 1 1 0 0 0 0
709 422 242 35 0 0 1 0 2 2 0 0 0 0 0 0 0 0 0 0 0 0 0 0 0 0 4 8 0 2 3 1 1 4 0 0 0 1 0 1 2 0 3
286 365 197 60 3 4 19 20 14 2 0 0 0 0 0 0 0 0 0 0 0 0 0 0 0 0 0 0 2 0 0 0 0 0 1 0 0 0 0 0 0 1 0
0 5 0 0 0 0 0 0 0 2 0 0 0 0 0 0 0 0 0 0 0 0 1 2 0 0 0 1 0 0 0 0 0 0 1 0 0 0 1 0 0 0 1
0 1 0 0 0 0 0 0 0 0 0 0 0 0 0 0 0 0 0 0 4 6 7 7 1 0 0 1 3 0 0 0 0 0 0 0 0 1 0 0 0 2 0
1 1 1 1 2 6 2 6 0 0 0 0 0 0 0 0 0 0 3 7 5 0 0 0 0 1 0 0 0 0 0 0 0 0 0 0 0 1 0 0 0 0 0
0 3 2 3 3 0 1 1 0 0 0 0 0 0 0 0 0 0 0 2 1 0 2 3 1 1 2 0 0 0 0 0 0 0 0 0 0 0 0 2 1 0 0
CIN
-89 -94 -91 -64 -46 -37 -28 -22 -16 -11 -15 -13 -10 -5 -1 -1 -1 -2 -1 -9 -2 -6 -7 -4 -6 -6 -3 -74 -26 -11 0 0 0 0 -7 -7 -7 -8 -17 0 -5 0 0
-129 -98 -108 -66 -59 -39 -37 -30 -23 -21 -15 -5 -1 -1 -1 -1 -1 -4 -2 -2 -2 -4 -3 -7 -5 -6 -2 -58 -62 0 0 0 0 -56 -1 -6 -13 -12 -13 -10 -5 0 0
-154 -130 -87 -80 -77 -56 -38 -40 -20 -19 -19 -12 -5 -5 -1 0 -1 -1 -3 -11 -1 -2 -3 -2 -3 -6 0 0 -51 0 0 0 0 -14 -1 -9 -8 -10 -10 -5 -23 -21 0
-157 -166 -107 -107 -88 -69 -34 -30 -31 -17 -9 -6 -3 -1 -1 -2 -26 -38 -47 -4 -1 -2 -3 -3 -39 -62 -44 -184 -61 0 0 -64 0 -6 -3 -7 -7 -9 -12 -8 -7 -19 0
-170 -158 -181 -105 -82 -69 -62 -28 -35 -37 -24 -2 -1 -2 -2 -156 -354 -235 -114 -8 -6 -4 0 -27 -130 -252 -149 -273 0 0 0 0 -8 -16 -5 -4 -6 -4 -8 -13 -9 -9 -16
-73 -114 -125 -117 -74 -72 -67 -60 -35 -28 -6 -2 -2 -2 -6 -528 0 0 0 -29 -19 -4 -8 -16 -158 -243 0 0 0 0 0 0 -29 -2 -10 -11 -15 -35 -22 -31 -31 -6 -1
-35 -46 -82 -79 -86 -59 -62 -35 -33 -8 -2 -1 -3 -11 -69 -180 0 0 0 -64 -31 -34 -42 -110 -164 -106 0 0 0 0 0 0 0 -49 -6 -23 -21 -17 -20 -22 -30 -20 -21
-20 -13 -28 -30 -40 -27 -21 -31 -8 -5 -3 -2 -19 -46 -312 0 0 0 0 -134 -64 -80 -135 -104 -118 -177 -344 0 0 0 0 0 0 0 -27 -35 -29 -19 -32 -24 -38 -38 -40
-3 -14 -8 -10 -8 -8 -6 -7 -6 -3 -3 -13 -32 -41 -243 0 0 0 0 -45 -64 -92 -160 0 -229 -221 0 0 -4 0 0 0 0 0 -5 -15 -20 -21 -23 -30 -20 -26 -16
-4 -5 -8 -5 -6 -5 -6 -6 -5 -3 -9 -59 -88 -187 -572 0 0 0 0 -165 -52 -128 -155 0 0 0 0 0 -4 0 0 0 0 0 0 0 -54 0 -1 -11 -27 -16 -29
-27 -71 -14 -10 -8 -8 -8 -6 -4 -9 -64 -131 -219 -289 -296 0 0 0 0 -302 -283 -153 -179 -261 0 0 0 0 0 -48 0 0 0 0 -4 -9 0 0 0 -26 -18 -21 -23
0 -34 -73 -10 -11 -14 -12 -6 -5 -64 -113 -214 -235 -234 -369 0 0 0 0 0 0 -162 -213 0 0 0 0 0 0 0 0 0 0 0 0 0 0 0 0 -13 -38 -26 -31
0 0 -26 -28 -7 -15 -7 0 -6 -117 -174 -204 -212 -236 -324 0 0 0 0 0 0 -344 -43 0 0 0 0 0 0 0 0 0 0 -14 -19 -40 -49 -41 0 -18 -26 -45 -46
0 0 -16 -132 -242 -322 -204 -83 -64 -65 -108 -125 -155 -188 -277 -64 0 0 0 0 0 0 0 0 0 0 0 0 0 0 0 -8 -31 -28 -31 -76 -54 -36 -28 -22 -16 -19 -12
0 0 -4 -184 -101 -280 0 0 0 0 -95 -65 -162 -293 -504 0 0 0 0 -1 -1 0 -116 0 0 0 -1 -69 -16 -44 -25 -14 -18 -18 -24 -33 -40 -65 -33 -33 -21 -18 -22
0 0 0 -9 -93 -144 0 0 0 0 0 0 0 0 0 0 0 0 0 0 0 0 -4 -1 -4 0 -2 0 0 0 -17 -58 -21 -13 -57 -50 -29 -35 -54 -31 -70 -14 -8
-1 0 0 -95 -446 0 0 0 0 0 0 0 0 0 0 0 0 0 0 0 0 0 0 -7 -2 0 0 0 0 0 0 0 -2 -23 -1 0 -49 -9 -52 -56 -58 -29 -16
-2 -2 -2 0 -257 0 0 0 0 0 0 0 0 0 0 0 0 0 0 0 0 0 -1 -3 -4 -3 0 0 0 0 0 0 0 0 0 0 -39 -37 -17 -32 -33 -38 -27
0 -1 -6 -1 -154 0 0 0 0 0 0 0 0 0 0 0 0 0 0 0 -2 0 0 0 -4 -5 -2 -1 -1 0 0 0 0 0 0 0 0 0 0 -34 -13 -16 -13
0 -76 -64 -14 0 0 0 0 0 0 0 0 0 0 0 0 0 0 0 0 -1 0 -1 0 0 0 -5 -4 -4 -1 0 0 0 0 0 0 0 0 0 0 0 -3 0
-23 -77 -107 -247 0 0 -5 -1 -3 -5 0 0 0 0 0 0 0 0 0 0 0 0 0 0 0 0 -2 -2 0 -4 -4 -2 0 0 0 0 0 0 0 0 0 0 0
-92 -91 -130 -229 -78 -39 -22 -32 -216 -4 0 0 0 0 0 0 0 0 0 0 0 0 0 0 0 0 0 -2 -2 0 0 0 0 0 -1 0 0 0 0 0 0 0 0
0 -103 0 0 0 0 0 0 0 -28 0 0 0 0 0 0 0 0 0 0 0 0 0 -1 0 0 0 -7 0 0 0 0 0 0 0 0 0 0 -1 -1 0 0 0
0 0 0 0 0 0 0 0 0 0 0 0 0 0 0 0 0 0 0 0 0 0 -1 -1 -1 0 0 -3 -1 0 0 0 0 0 0 0 0 0 0 0 0 -5 0
0 0 0 0 0 0 0 0 0 0 0 0 0 0 0 0 0 0 -1 0 0 0 0 0 0 0 0 0 0 0 0 0 0 0 0 0 0 0 0 0 0 0 0
0 0 0 0 0 0 0 0 0 0 0 0 0 0 0 -2 0 0 0 0 0 0 0 0 0 0 -4 0 0 0 0 0 0 0 0 0 0 0 0 0 -1 0 0
Wind_Speed
14 13 13 12 12 10 9 7 6 5 4 4 3 3 4 5 3 3 4 7 4 6 6 5 6 5 4 5 3 3 5 3 3 2 3 6 5 5 7 6 6 7 6
14 10 13 12 12 12 11 10 9 8 7 6 5 5 5 4 4 3 5 5 6 8 6 6 6 4 5 5 4 6 5 3 3 7 6 4 6 5 5 4 4 7 6
16 15 11 12 12 11 11 10 8 8 8 7 6 7 5 5 3 2 5 6 5 5 6 7 9 10 8 5 7 6 4 4 3 6 5 4 3 5 4 2 5 5 6
16 16 14 14 13 11 10 10 10 8 8 7 6 5 5 4 5 6 4 5 3 5 5 6 8 7 6 8 7 8 6 4 2 5 5 5 4 5 4 4 3 3 5
16 16 16 13 13 12 12 12 11 10 8 7 6 7 5 7 4 4 3 4 4 4 4 7 8 9 8 8 7 8 7 5 3 5 4 5 4 5 5 4 4 4 3
10 15 14 13 12 13 13 13 11 10 9 8 8 7 6 7 6 4 2 2 3 7 7 6 7 8 8 8 12 10 7 6 3 4 3 4 6 4 3 5 3 3 2
4 8 12 13 14 14 13 12 12 11 9 8 8 6 8 8 8 4 2 3 4 5 5 4 6 6 7 8 9 10 7 2 4 2 6 6 5 4 5 5 5 4 2
7 7 10 11 13 13 13 13 11 10 9 8 8 9 8 6 2 3 3 3 4 6 5 6 5 7 5 8 7 6 3 5 5 4 5 6 5 5 6 4 5 4 2
8 9 8 11 11 12 13 12 11 11 9 10 9 10 9 5 2 4 4 7 6 6 6 5 2 8 5 5 6 5 4 3 6 10 9 8 12 11 7 6 3 5 3
9 9 9 9 11 13 14 14 12 11 12 10 10 11 12 6 2 3 2 4 9 6 5 6 11 8 6 6 1 7 4 3 3 4 7 8 7 6 5 2 4 2 2
11 14 9 11 12 15 14 12 12 14 13 12 11 9 10 8 3 2 3 4 4 6 5 5 5 8 7 5 0 5 6 5 4 3 4 4 4 4 2 2 1 2 3
15 13 12 12 11 10 14 12 13 12 12 11 11 8 6 6 6 0 6 7 1 5 6 5 6 9 8 5 6 7 12 8 4 4 4 5 5 4 3 4 4 1 3
14 13 10 11 10 11 14 11 10 9 10 9 7 8 8 5 3 6 5 4 3 6 6 7 10 8 8 7 6 6 8 4 5 4 5 4 5 6 6 3 4 5 6
13 13 7 4 7 6 12 7 4 4 6 7 8 8 10 9 6 6 4 4 5 8 9 5 5 5 4 7 5 3 4 4 1 3 3 5 5 4 3 4 3 3 3
12 11 6 1 5 3 8 10 10 4 2 6 6 6 10 9 5 4 5 3 5 4 6 6 4 3 4 3 1 1 2 2 0 1 1 3 7 5 5 4 4 2 2
11 9 5 3 4 7 9 7 12 19 17 14 4 11 4 17 17 9 5 4 4 5 5 6 5 3 4 4 3 3 4 6 3 4 5 2 3 4 4 4 4 3 3
10 7 6 6 8 7 9 9 8 5 22 21 18 17 8 14 14 11 8 5 5 4 6 5 4 4 3 4 4 4 3 5 6 3 3 3 3 3 1 3 4 2 2
9 6 8 6 9 8 9 8 6 10 1 4 5 4 5 10 6 8 7 1 3 2 7 7 6 4 3 4 5 4 2 3 3 4 3 4 3 4 2 3 2 4 4
8 5 6 6 7 7 6 10 9 10 8 7 4 5 2 6 5 5 1 4 4 6 7 7 6 4 3 4 5 5 4 4 3 4 4 4 5 5 4 4 3 5 5
8 5 6 5 8 9 5 5 8 8 10 7 6 4 4 3 4 5 7 3 3 5 5 9 7 6 4 3 3 4 4 3 4 3 3 4 3 3 4 5 4 4 5
6 5 9 7 9 7 8 8 6 5 8 6 6 6 4 4 6 5 4 4 5 6 7 7 9 6 3 3 3 3 4 4 3 2 3 2 3 3 3 4 4 4 5
6 5 7 8 9 9 6 4 8 7 5 7 5 4 5 2 7 6 7 7 5 6 6 5 4 6 5 4 3 3 9 6 5 6 5 3 1 1 1 3 4 4 4
3 5 8 8 9 11 8 6 6 7 8 5 6 6 5 6 6 6 6 5 4 5 4 6 4 6 5 4 5 6 6 5 5 4 5 6 5 5 5 4 4 4 4
7 6 7 8 8 10 9 8 9 7 9 8 6 6 3 6 7 7 7 6 4 4 5 6 6 8 5 5 4 7 6 5 4 5 8 5 6 6 6 7 8 6 6
7 7 8 8 8 7 8 7 8 8 7 7 10 3 2 4 8 7 5 6 6 5 6 7 5 7 6 12 9 7 6 4 4 4 4 7 8 10 9 8 9 9 11
7 7 7 7 8 7 7 6 6 8 7 7 9 7 6 4 5 6 5 6 6 5 5 5 5 5 8 9 8 6 5 3 2 3 3 4 6 7 8 10 14 11 11
Wind_Direction
196 203 203 205 205 210 223 232 246 253 260 261 256 263 275 271 274 284 313 281 318 312 311 340 317 333 359 104 132 99 110 97 142 66 87 110 112 108 96 114 137 109 110
188 205 200 198 204 207 213 222 218 228 227 225 221 232 246 265 273 325 309 336 355 330 347 340 331 346 62 142 122 109 128 89 97 125 126 131 111 113 119 164 147 126 123
180 191 195 201 200 207 204 210 218 210 216 226 215 212 224 241 277 293 36 357 317 346 0 348 20 21 12 104 114 121 116 115 150 137 129 123 115 124 133 148 89 104 117
181 184 196 199 199 202 202 203 213 210 215 217 224 240 203 233 55 45 15 310 343 10 16 20 39 24 1 108 121 118 118 134 147 124 153 130 143 160 159 137 129 145 136
178 185 195 194 198 203 205 205 206 209 217 223 213 221 196 80 54 30 1 303 41 15 9 55 62 42 60 122 129 139 145 143 169 128 133 147 155 172 171 171 132 156 116
176 185 185 191 194 202 205 203 203 209 209 204 212 203 153 95 76 60 335 333 41 27 46 38 86 65 61 104 123 138 142 144 191 145 121 160 175 174 154 152 126 141 143
297 198 189 187 195 202 200 197 200 201 196 201 201 142 102 99 45 353 334 291 71 57 51 34 74 88 95 108 93 97 105 21 276 242 171 175 162 178 134 139 147 191 155
239 253 202 197 197 200 199 198 187 185 184 184 137 121 119 91 45 307 9 243 112 86 45 56 107 120 133 127 139 130 94 50 10 350 164 164 162 144 141 137 144 123 78
265 227 226 208 204 202 199 194 186 177 173 148 142 134 122 129 42 15 352 178 140 110 90 58 57 113 147 66 121 128 99 59 49 40 61 111 115 121 133 118 159 152 154
288 244 222 213 209 207 196 194 187 174 152 144 145 135 130 151 144 66 21 244 153 135 124 119 64 96 72 63 64 145 140 125 97 97 73 69 83 131 119 125 164 219 127
330 323 246 207 210 209 199 192 168 160 149 144 140 139 149 149 144 85 39 94 94 138 134 138 112 98 87 76 12 171 146 143 115 132 122 134 135 140 179 221 245 199 150
322 310 303 229 208 209 200 173 160 151 143 144 139 145 139 143 138 153 72 78 195 101 105 100 117 117 103 84 80 118 132 157 186 183 168 160 166 171 215 198 195 55 80
316 302 294 279 255 222 181 167 143 144 140 138 152 169 153 153 151 163 180 157 122 86 84 100 127 126 117 100 126 147 153 210 191 202 186 187 180 169 174 197 131 137 116
313 305 303 359 65 9 17 145 114 147 154 156 180 193 155 152 166 171 186 153 114 98 119 127 131 131 85 108 143 193 229 253 163 231 203 160 130 118 127 146 165 186 182
310 300 279 226 143 142 101 26 341 271 244 193 191 180 156 137 116 55 353 135 123 97 124 130 160 177 172 150 56 210 279 208 135 20 87 134 149 158 156 175 166 174 231
302 293 279 154 158 122 112 107 64 336 35 11 155 138 95 125 134 146 129 88 119 141 139 117 99 73 45 59 41 4 40 17 40 48 23 11 156 159 167 160 162 177 188
296 282 255 119 132 141 122 149 151 214 33 48 23 351 97 136 138 155 187 175 191 140 122 112 118 116 113 96 70 39 25 3 342 45 64 1 5 82 113 166 147 150 235
295 264 249 180 144 165 149 159 155 116 202 74 13 31 9 88 144 171 122 341 186 232 134 136 124 124 125 113 104 84 57 26 15 4 14 3 346 356 230 185 201 201 222
282 292 237 203 151 170 170 142 151 154 167 146 166 202 136 89 58 358 65 240 210 134 129 122 110 91 95 118 120 99 83 65 28 18 22 17 5 352 328 327 228 226 221
277 271 225 168 147 141 169 145 149 157 150 170 169 152 145 128 149 186 223 211 91 104 97 124 121 97 98 80 79 101 114 112 81 44 31 13 8 1 339 335 342 310 223
265 256 187 166 160 164 163 189 177 174 138 174 123 78 69 255 164 155 126 69 69 79 63 53 114 129 164 112 60 66 97 91 74 49 137 61 6 356 346 324 321 324 311
247 224 173 162 147 136 205 176 133 145 130 132 140 154 218 161 89 79 74 73 67 64 78 67 51 72 52 44 59 54 69 56 33 20 347 341 297 197 312 320 318 314 311
82 128 126 125 120 123 112 110 91 119 137 125 130 168 169 124 115 94 93 90 80 101 90 92 90 84 78 53 67 70 77 61 33 8 343 339 330 323 320 275 266 273 277
101 89 110 115 130 126 120 115 122 112 106 101 66 46 103 130 125 119 116 115 113 109 104 94 91 88 76 57 79 87 79 51 1 350 12 328 308 317 317 313 306 262 255
112 104 97 94 89 75 92 107 107 109 105 114 105 135 187 141 127 136 131 123 117 107 94 93 82 91 80 102 102 99 109 94 43 350 342 342 318 313 297 290 284 281 284
108 109 107 100 111 110 105 129 143 131 131 156 128 158 190 166 129 122 136 137 134 121 123 106 107 109 99 120 114 124 139 139 67 23 329 295 290 296 301 310 308 305 296